Time,TemperatureF,DewpointF,PressureIn,WindDirection,WindDirectionDegrees,WindSpeedMPH,WindSpeedGustMPH,Humidity,HourlyPrecipIn,Conditions,Clouds,dailyrainin,SoftwareType,DateUTC
2013-05-18 00:02:00,63.0,62.0,29.97,ESE,117,3.0,5.0,95,0.00,,,0.54,,2013-05-18 05:02:00,
2013-05-18 00:12:00,63.0,62.0,29.97,ESE,117,3.0,5.0,95,0.00,,,0.54,,2013-05-18 05:12:00,
2013-05-18 00:22:00,63.0,62.0,29.96,ESE,115,3.0,6.0,95,0.00,,,0.54,,2013-05-18 05:22:00,
2013-05-18 00:31:00,62.0,61.0,29.96,ESE,119,3.0,7.0,95,0.00,,,0.54,,2013-05-18 05:31:00,
2013-05-18 00:42:00,62.0,61.0,29.96,ESE,119,3.0,7.0,95,0.00,,,0.54,,2013-05-18 05:42:00,
2013-05-18 00:52:00,63.0,62.0,29.96,SE,141,2.0,8.0,95,0.00,,,0.52,,2013-05-18 05:52:00,
2013-05-18 01:02:00,63.0,62.0,29.97,ESE,122,3.0,8.0,95,0.00,,,0.52,,2013-05-18 06:02:00,
2013-05-18 01:11:00,63.0,62.0,29.97,ESE,122,3.0,8.0,95,0.00,,,0.52,,2013-05-18 06:11:00,
2013-05-18 01:22:00,64.0,62.0,29.96,SSE,155,3.0,10.0,93,0.00,,,0.52,,2013-05-18 06:22:00,
2013-05-18 01:32:00,64.0,62.0,29.96,East,97,3.0,7.0,93,0.00,,,0.52,,2013-05-18 06:32:00,
2013-05-18 01:42:00,64.0,62.0,29.96,East,97,3.0,7.0,93,0.00,,,0.52,,2013-05-18 06:42:00,
2013-05-18 01:52:00,64.0,62.0,29.96,ESE,122,3.0,7.0,93,0.00,,,0.49,,2013-05-18 06:52:00,
2013-05-18 02:01:00,64.0,62.0,29.96,SE,125,2.0,6.0,92,0.00,,,0.49,,2013-05-18 07:01:00,
2013-05-18 02:11:00,64.0,62.0,29.96,SE,125,2.0,6.0,92,0.00,,,0.49,,2013-05-18 07:11:00,
2013-05-18 02:21:00,64.0,62.0,29.96,SE,146,1.0,8.0,92,0.00,,,0.49,,2013-05-18 07:21:00,
2013-05-18 02:31:00,63.0,61.0,29.96,SSE,155,2.0,6.0,92,0.00,,,0.49,,2013-05-18 07:31:00,
2013-05-18 02:42:00,63.0,61.0,29.96,SSE,155,2.0,6.0,92,0.00,,,0.49,,2013-05-18 07:42:00,
2013-05-18 02:52:00,63.0,61.0,29.96,SE,138,2.0,7.0,93,0.00,,,0.47,,2013-05-18 07:52:00,
2013-05-18 03:01:00,64.0,62.0,29.96,South,190,1.0,6.0,92,0.00,,,0.47,,2013-05-18 08:01:00,
2013-05-18 03:11:00,64.0,62.0,29.96,South,190,1.0,6.0,92,0.00,,,0.47,,2013-05-18 08:11:00,
2013-05-18 03:21:00,64.0,61.0,29.95,SE,140,4.0,6.0,91,0.00,,,0.47,,2013-05-18 08:21:00,
2013-05-18 03:32:00,64.0,61.0,29.95,ESE,117,3.0,9.0,90,0.00,,,0.47,,2013-05-18 08:32:00,
2013-05-18 03:42:00,64.0,61.0,29.95,ESE,117,3.0,9.0,90,0.00,,,0.47,,2013-05-18 08:42:00,
2013-05-18 03:52:00,65.0,62.0,29.95,ESE,103,3.0,9.0,89,0.00,,,0.26,,2013-05-18 08:52:00,
2013-05-18 04:02:00,65.0,62.0,29.95,SSE,151,1.0,7.0,89,0.00,,,0.26,,2013-05-18 09:02:00,
2013-05-18 04:11:00,65.0,62.0,29.95,SSE,151,1.0,7.0,89,0.00,,,0.26,,2013-05-18 09:11:00,
2013-05-18 04:22:00,65.0,62.0,29.95,ESE,118,4.0,8.0,89,0.00,,,0.26,,2013-05-18 09:22:00,
2013-05-18 04:32:00,64.0,61.0,29.96,SE,138,2.0,6.0,89,0.00,,,0.26,,2013-05-18 09:32:00,
2013-05-18 04:43:00,64.0,61.0,29.96,SE,138,2.0,6.0,89,0.00,,,0.26,,2013-05-18 09:43:00,
2013-05-18 04:53:00,64.0,61.0,29.96,SSE,161,3.0,5.0,90,0.00,,,0.09,,2013-05-18 09:53:00,
2013-05-18 05:03:00,63.0,60.0,29.96,East,98,1.0,5.0,91,0.00,,,0.09,,2013-05-18 10:03:00,
2013-05-18 05:12:00,63.0,60.0,29.96,East,98,1.0,5.0,91,0.00,,,0.09,,2013-05-18 10:12:00,
2013-05-18 05:23:00,63.0,60.0,29.96,SE,134,1.0,7.0,91,0.00,,,0.09,,2013-05-18 10:23:00,
2013-05-18 05:33:00,63.0,60.0,29.97,South,180,0.0,4.0,91,0.00,,,0.09,,2013-05-18 10:33:00,
2013-05-18 05:42:00,63.0,60.0,29.97,South,180,0.0,4.0,91,0.00,,,0.09,,2013-05-18 10:42:00,
2013-05-18 05:53:00,62.0,60.0,29.96,SE,133,1.0,7.0,92,0.00,,,0.00,,2013-05-18 10:53:00,
2013-05-18 06:02:00,62.0,60.0,29.96,SE,130,1.0,6.0,93,0.00,,,0.00,,2013-05-18 11:02:00,
2013-05-18 06:12:00,62.0,60.0,29.96,SE,130,1.0,6.0,93,0.00,,,0.00,,2013-05-18 11:12:00,
2013-05-18 06:22:00,62.0,60.0,29.96,SE,131,2.0,8.0,93,0.00,,,0.00,,2013-05-18 11:22:00,
2013-05-18 06:33:00,62.0,60.0,29.97,ESE,105,2.0,8.0,93,0.00,,,0.00,,2013-05-18 11:33:00,
2013-05-18 06:42:00,62.0,60.0,29.97,ESE,105,2.0,8.0,93,0.00,,,0.00,,2013-05-18 11:42:00,
2013-05-18 06:52:00,62.0,60.0,29.97,SE,135,1.0,7.0,93,0.00,,,0.00,,2013-05-18 11:52:00,
2013-05-18 07:01:00,62.0,60.0,29.98,ESE,115,4.0,8.0,92,0.00,,,0.00,,2013-05-18 12:01:00,
2013-05-18 07:12:00,62.0,60.0,29.98,ESE,115,4.0,8.0,92,0.00,,,0.00,,2013-05-18 12:12:00,
2013-05-18 07:23:00,63.0,61.0,29.98,SE,146,2.0,9.0,92,0.00,,,0.00,,2013-05-18 12:23:00,
2013-05-18 07:33:00,63.0,60.0,29.98,SE,127,2.0,7.0,91,0.00,,,0.00,,2013-05-18 12:33:00,
2013-05-18 07:42:00,63.0,60.0,29.98,SE,127,2.0,7.0,91,0.00,,,0.00,,2013-05-18 12:42:00,
2013-05-18 07:52:00,63.0,60.0,29.98,SSE,159,2.0,6.0,91,0.00,,,0.00,,2013-05-18 12:52:00,
2013-05-18 08:01:00,64.0,61.0,29.98,SSE,150,2.0,4.0,91,0.00,,,0.00,,2013-05-18 13:01:00,
2013-05-18 08:11:00,64.0,61.0,29.98,SSE,150,2.0,4.0,91,0.00,,,0.00,,2013-05-18 13:11:00,
2013-05-18 08:21:00,64.0,61.0,29.98,SE,136,2.0,7.0,91,0.00,,,0.00,,2013-05-18 13:21:00,
2013-05-18 08:33:00,65.0,62.0,29.99,South,171,2.0,7.0,89,0.00,,,0.00,,2013-05-18 13:33:00,
2013-05-18 08:43:00,65.0,62.0,29.99,South,171,2.0,7.0,89,0.00,,,0.00,,2013-05-18 13:43:00,
2013-05-18 08:53:00,66.0,62.0,29.99,SSW,209,3.0,7.0,87,0.00,,,0.00,,2013-05-18 13:53:00,
2013-05-18 09:03:00,68.0,64.0,29.98,SSE,147,2.0,8.0,88,0.00,,,0.00,,2013-05-18 14:03:00,
2013-05-18 09:12:00,68.0,64.0,29.98,SSE,147,2.0,8.0,88,0.00,,,0.00,,2013-05-18 14:12:00,
2013-05-18 09:22:00,69.0,64.0,29.98,South,178,4.0,8.0,84,0.00,,,0.00,,2013-05-18 14:22:00,
2013-05-18 09:32:00,69.0,64.0,29.98,SW,226,4.0,9.0,84,0.00,,,0.00,,2013-05-18 14:32:00,
2013-05-18 09:42:00,69.0,64.0,29.98,SW,226,4.0,9.0,84,0.00,,,0.00,,2013-05-18 14:42:00,
2013-05-18 09:54:00,70.0,64.0,29.98,South,181,3.0,9.0,82,0.00,,,0.00,,2013-05-18 14:54:00,
2013-05-18 10:03:00,71.0,65.0,29.98,SSE,157,4.0,10.0,82,0.00,,,0.00,,2013-05-18 15:03:00,
2013-05-18 10:13:00,71.0,65.0,29.98,SSE,157,4.0,10.0,82,0.00,,,0.00,,2013-05-18 15:13:00,
2013-05-18 10:23:00,72.0,67.0,29.98,South,178,1.0,6.0,83,0.00,,,0.00,,2013-05-18 15:23:00,
2013-05-18 10:33:00,72.0,65.0,29.98,SE,142,3.0,8.0,80,0.00,,,0.00,,2013-05-18 15:33:00,
2013-05-18 10:43:00,72.0,65.0,29.98,SE,142,3.0,8.0,80,0.00,,,0.00,,2013-05-18 15:43:00,
2013-05-18 10:53:00,73.0,66.0,29.97,SSE,151,5.0,11.0,79,0.00,,,0.00,,2013-05-18 15:53:00,
2013-05-18 11:02:00,74.0,66.0,29.97,SSE,155,3.0,14.0,76,0.00,,,0.00,,2013-05-18 16:02:00,
2013-05-18 11:13:00,74.0,66.0,29.97,SSE,155,3.0,14.0,76,0.00,,,0.00,,2013-05-18 16:13:00,
2013-05-18 11:22:00,76.0,67.0,29.97,South,186,3.0,9.0,73,0.00,,,0.00,,2013-05-18 16:22:00,
2013-05-18 11:33:00,76.0,66.0,29.97,SSE,168,4.0,10.0,71,0.00,,,0.00,,2013-05-18 16:33:00,
2013-05-18 11:42:00,76.0,66.0,29.97,SSE,168,4.0,10.0,71,0.00,,,0.00,,2013-05-18 16:42:00,
2013-05-18 11:52:00,76.0,66.0,29.97,South,175,3.0,13.0,71,0.00,,,0.00,,2013-05-18 16:52:00,
2013-05-18 12:02:00,77.0,66.0,29.96,SSE,158,5.0,16.0,69,0.00,,,0.00,,2013-05-18 17:02:00,
2013-05-18 12:12:00,77.0,66.0,29.96,SSE,158,5.0,16.0,69,0.00,,,0.00,,2013-05-18 17:12:00,
2013-05-18 12:22:00,77.0,66.0,29.96,ESE,123,5.0,12.0,69,0.00,,,0.00,,2013-05-18 17:22:00,
2013-05-18 12:32:00,78.0,66.0,29.95,SSE,167,5.0,12.0,67,0.00,,,0.00,,2013-05-18 17:32:00,
2013-05-18 12:42:00,78.0,66.0,29.95,SSE,167,5.0,12.0,67,0.00,,,0.00,,2013-05-18 17:42:00,
2013-05-18 12:52:00,78.0,66.0,29.94,ESE,112,4.0,11.0,66,0.00,,,0.00,,2013-05-18 17:52:00,
2013-05-18 13:01:00,78.0,67.0,29.93,SE,134,5.0,15.0,68,0.00,,,0.00,,2013-05-18 18:01:00,
2013-05-18 13:12:00,78.0,67.0,29.93,SE,134,5.0,15.0,68,0.00,,,0.00,,2013-05-18 18:12:00,
2013-05-18 13:21:00,78.0,67.0,29.93,SSE,147,5.0,13.0,68,0.00,,,0.00,,2013-05-18 18:21:00,
2013-05-18 13:32:00,79.0,66.0,29.93,SE,138,4.0,13.0,65,0.00,,,0.00,,2013-05-18 18:32:00,
2013-05-18 13:42:00,79.0,66.0,29.93,SE,138,4.0,13.0,65,0.00,,,0.00,,2013-05-18 18:42:00,
2013-05-18 13:52:00,79.0,66.0,29.93,SW,234,5.0,12.0,65,0.00,,,0.00,,2013-05-18 18:52:00,
2013-05-18 14:02:00,79.0,65.0,29.92,South,174,5.0,11.0,62,0.00,,,0.00,,2013-05-18 19:02:00,
2013-05-18 14:11:00,79.0,65.0,29.92,South,174,5.0,11.0,62,0.00,,,0.00,,2013-05-18 19:11:00,
2013-05-18 14:22:00,80.0,66.0,29.92,SE,141,6.0,14.0,62,0.00,,,0.00,,2013-05-18 19:22:00,
2013-05-18 14:32:00,80.0,66.0,29.91,ESE,112,4.0,10.0,62,0.00,,,0.00,,2013-05-18 19:32:00,
2013-05-18 14:42:00,80.0,66.0,29.91,ESE,112,4.0,10.0,62,0.00,,,0.00,,2013-05-18 19:42:00,
2013-05-18 14:52:00,80.0,66.0,29.91,SSE,154,4.0,13.0,62,0.00,,,0.00,,2013-05-18 19:52:00,
2013-05-18 15:02:00,80.0,64.0,29.90,ESE,123,5.0,14.0,58,0.00,,,0.00,,2013-05-18 20:02:00,
2013-05-18 15:11:00,80.0,64.0,29.90,ESE,123,5.0,14.0,58,0.00,,,0.00,,2013-05-18 20:11:00,
2013-05-18 15:22:00,80.0,65.0,29.90,SE,124,4.0,13.0,61,0.00,,,0.00,,2013-05-18 20:22:00,
2013-05-18 15:32:00,80.0,65.0,29.90,SE,130,5.0,10.0,61,0.00,,,0.00,,2013-05-18 20:32:00,
2013-05-18 15:42:00,80.0,65.0,29.90,SE,130,5.0,10.0,61,0.00,,,0.00,,2013-05-18 20:42:00,
2013-05-18 15:52:00,80.0,65.0,29.89,South,188,8.0,15.0,60,0.00,,,0.00,,2013-05-18 20:52:00,
2013-05-18 16:01:00,80.0,65.0,29.89,South,172,5.0,12.0,60,0.00,,,0.00,,2013-05-18 21:01:00,
2013-05-18 16:12:00,80.0,65.0,29.89,South,172,5.0,12.0,60,0.00,,,0.00,,2013-05-18 21:12:00,
2013-05-18 16:21:00,80.0,65.0,29.89,South,173,3.0,12.0,61,0.00,,,0.00,,2013-05-18 21:21:00,
2013-05-18 16:32:00,80.0,66.0,29.88,SE,145,4.0,12.0,62,0.00,,,0.00,,2013-05-18 21:32:00,
2013-05-18 16:43:00,80.0,66.0,29.88,SE,145,4.0,12.0,62,0.00,,,0.00,,2013-05-18 21:43:00,
2013-05-18 16:53:00,81.0,66.0,29.88,South,180,4.0,13.0,60,0.00,,,0.00,,2013-05-18 21:53:00,
2013-05-18 17:03:00,82.0,65.0,29.88,South,171,5.0,13.0,57,0.00,,,0.00,,2013-05-18 22:03:00,
2013-05-18 17:12:00,82.0,65.0,29.88,South,171,5.0,13.0,57,0.00,,,0.00,,2013-05-18 22:12:00,
2013-05-18 17:23:00,81.0,65.0,29.88,SSE,152,3.0,11.0,59,0.00,,,0.00,,2013-05-18 22:23:00,
2013-05-18 17:33:00,81.0,65.0,29.88,SSE,167,4.0,16.0,58,0.00,,,0.00,,2013-05-18 22:33:00,
2013-05-18 17:42:00,81.0,64.0,29.88,South,183,4.0,14.0,57,0.00,,,0.00,,2013-05-18 22:42:00,
2013-05-18 17:52:00,81.0,64.0,29.88,South,183,4.0,14.0,57,0.00,,,0.00,,2013-05-18 22:52:00,
2013-05-18 18:01:00,81.0,64.0,29.88,SE,146,4.0,10.0,57,0.00,,,0.00,,2013-05-18 23:01:00,
2013-05-18 18:12:00,81.0,64.0,29.88,SE,146,4.0,10.0,57,0.00,,,0.00,,2013-05-18 23:12:00,
2013-05-18 18:22:00,82.0,64.0,29.87,South,169,4.0,10.0,55,0.00,,,0.00,,2013-05-18 23:22:00,
2013-05-18 18:32:00,83.0,65.0,29.86,SSW,192,3.0,12.0,55,0.00,,,0.00,,2013-05-18 23:32:00,
2013-05-18 18:41:00,83.0,65.0,29.86,SSW,192,3.0,12.0,55,0.00,,,0.00,,2013-05-18 23:41:00,
2013-05-18 18:53:00,83.0,63.0,29.86,SW,217,6.0,16.0,51,0.00,,,0.00,,2013-05-18 23:53:00,
2013-05-18 19:01:00,82.0,63.0,29.86,SE,144,5.0,13.0,52,0.00,,,0.00,,2013-05-19 00:01:00,
2013-05-18 19:11:00,82.0,63.0,29.86,SE,144,5.0,13.0,52,0.00,,,0.00,,2013-05-19 00:11:00,
2013-05-18 19:21:00,82.0,63.0,29.87,SE,134,3.0,13.0,53,0.00,,,0.00,,2013-05-19 00:21:00,
2013-05-18 19:32:00,81.0,63.0,29.86,SE,132,5.0,9.0,54,0.00,,,0.00,,2013-05-19 00:32:00,
2013-05-18 19:41:00,81.0,63.0,29.86,SE,132,5.0,9.0,54,0.00,,,0.00,,2013-05-19 00:41:00,
2013-05-18 19:52:00,81.0,64.0,29.86,South,172,4.0,9.0,56,0.00,,,0.00,,2013-05-19 00:52:00,
2013-05-18 20:01:00,80.0,63.0,29.85,South,175,5.0,9.0,57,0.00,,,0.00,,2013-05-19 01:01:00,
2013-05-18 20:11:00,80.0,63.0,29.85,South,175,5.0,9.0,57,0.00,,,0.00,,2013-05-19 01:11:00,
2013-05-18 20:21:00,79.0,64.0,29.84,SE,138,5.0,11.0,60,0.00,,,0.00,,2013-05-19 01:21:00,
2013-05-18 20:32:00,79.0,65.0,29.83,SE,136,3.0,8.0,62,0.00,,,0.00,,2013-05-19 01:32:00,
2013-05-18 20:42:00,79.0,65.0,29.83,SE,136,3.0,8.0,62,0.00,,,0.00,,2013-05-19 01:42:00,
2013-05-18 20:52:00,78.0,64.0,29.83,ESE,117,2.0,5.0,63,0.00,,,0.00,,2013-05-19 01:52:00,
2013-05-18 21:01:00,77.0,64.0,29.83,SE,134,2.0,8.0,65,0.00,,,0.00,,2013-05-19 02:01:00,
2013-05-18 21:11:00,77.0,64.0,29.83,SE,134,2.0,8.0,65,0.00,,,0.00,,2013-05-19 02:11:00,
2013-05-18 21:21:00,76.0,64.0,29.82,ENE,78,1.0,4.0,67,0.00,,,0.00,,2013-05-19 02:21:00,
2013-05-18 21:32:00,73.0,63.0,29.83,East,92,2.0,5.0,72,0.00,,,0.00,,2013-05-19 02:32:00,
2013-05-18 21:42:00,73.0,63.0,29.83,East,92,2.0,5.0,72,0.00,,,0.00,,2013-05-19 02:42:00,
2013-05-18 21:52:00,72.0,64.0,29.83,ESE,108,1.0,5.0,75,0.00,,,0.00,,2013-05-19 02:52:00,
2013-05-18 22:01:00,72.0,64.0,29.83,SE,144,3.0,7.0,75,0.00,,,0.00,,2013-05-19 03:01:00,
2013-05-18 22:11:00,72.0,64.0,29.83,SE,144,3.0,7.0,75,0.00,,,0.00,,2013-05-19 03:11:00,
2013-05-18 22:22:00,73.0,63.0,29.83,SE,143,3.0,8.0,72,0.00,,,0.00,,2013-05-19 03:22:00,
2013-05-18 22:33:00,73.0,63.0,29.83,SE,130,2.0,10.0,72,0.00,,,0.00,,2013-05-19 03:33:00,
2013-05-18 22:42:00,73.0,63.0,29.83,SE,130,2.0,10.0,72,0.00,,,0.00,,2013-05-19 03:42:00,
2013-05-18 22:53:00,73.0,63.0,29.83,SE,134,2.0,7.0,72,0.00,,,0.00,,2013-05-19 03:53:00,
2013-05-18 23:02:00,71.0,63.0,29.83,East,84,2.0,5.0,75,0.00,,,0.00,,2013-05-19 04:02:00,
2013-05-18 23:12:00,71.0,63.0,29.83,East,84,2.0,5.0,75,0.00,,,0.00,,2013-05-19 04:12:00,
2013-05-18 23:23:00,69.0,63.0,29.83,ESE,106,2.0,7.0,80,0.00,,,0.00,,2013-05-19 04:23:00,
2013-05-18 23:33:00,69.0,63.0,29.83,ESE,119,3.0,5.0,81,0.00,,,0.00,,2013-05-19 04:33:00,
2013-05-18 23:42:00,69.0,63.0,29.83,ESE,119,3.0,5.0,81,0.00,,,0.00,,2013-05-19 04:42:00,
2013-05-18 23:53:00,69.0,63.0,29.82,ESE,108,1.0,5.0,80,0.00,,,0.00,,2013-05-19 04:53:00,